FW4763 Weather Reports


time (UTC)temp
F
wind
direction
speed
knots
gust
knots
rain 1hr
in
rain 24hr
in
rain mn
in
humidity
%
barometer
mb
20260505091517 43 160 5.2 8.7 0.00 0.26 0.00 86 1008.8
20260505090013 43 195 4.3 7.0 0.00 0.26 0.00 86 1008.7
20260505084511 43 185 2.6 7.8 0.00 0.26 0.00 85 1008.5
20260505083008 44 199 2.6 8.7 0.00 0.26 0.00 84 1008.4
20260505081512 44 180 2.6 10.4 0.00 0.26 0.00 84 1008.1
20260505080007 44 202 3.5 7.0 0.00 0.28 0.00 84 1007.9
20260505074504 44 222 1.7 9.6 0.00 0.28 0.00 83 1007.9
20260505073102 45 180 2.6 7.0 0.00 0.28 0.00 82 1007.7
20260505071556 45 206 0.9 7.8 0.00 0.28 0.00 82 1007.5
20260505070057 45 235 3.5 9.6 0.00 0.31 0.00 82 1007.3
20260505064553 45 206 4.3 11.3 0.00 0.31 0.00 82 1007.0
20260505063051 46 207 3.5 7.8 0.00 0.31 0.00 81 1006.8
20260505061548 46 217 3.5 8.7 0.00 0.31 0.00 81 1006.5
20260505060044 46 239 2.6 13.0 0.00 0.32 0.00 80 1006.2
20260505054605 47 273 3.5 11.3 0.00 0.32 0.00 80 1005.8
20260505053045 47 257 5.2 15.6 0.00 0.32 0.00 80 1005.5
20260505051541 47 245 6.1 12.2 0.00 0.32 0.00 80 1005.2
20260505041543 48 267 6.1 13.0 0.00 0.34 0.00 80 1004.6
20260505040025 48 279 7.0 13.9 0.00 0.35 0.00 81 1004.4
20260505034523 48 251 7.0 15.6 0.00 0.35 0.00 81 1004.3
20260505033024 47 202 7.0 13.0 0.00 0.35 0.00 80 1004.1
20260505031527 48 242 6.1 14.8 0.00 0.35 0.00 80 1004.0
20260505030014 48 216 6.1 15.6 0.00 0.35 0.35 79 1003.6
20260505024512 48 235 4.3 12.2 0.00 0.35 0.35 79 1003.5
20260505023014 48 274 7.0 15.6 0.00 0.35 0.35 77 1003.3
20260505021510 49 230 9.6 18.2 0.00 0.35 0.35 74 1003.1
20260505020008 50 236 9.6 27.8 0.00 0.51 0.35 71 1002.7
20260505014510 50 264 8.7 14.8 0.00 0.51 0.35 69 1002.9
20260505013006 49 221 5.2 10.4 0.00 0.51 0.35 69 1002.6
20260505011504 50 180 4.3 17.4 0.00 0.51 0.35 66 1002.6
20260505010009 50 239 7.8 20.0 0.00 0.67 0.35 64 1002.4
20260505004502 49 217 13.0 22.6 0.00 0.67 0.35 66 1002.2
20260505003119 48 180 2.6 7.8 0.00 0.67 0.35 65 1002.0
20260505001559 48 266 2.6 8.7 0.00 0.67 0.35 66 1002.0
20260504234556 47 258 1.7 3.5 0.00 0.87 0.35 69 1001.4
20260504233059 49 147 0.9 2.6 0.00 0.87 0.35 62 1001.1
20260504231552 50 198 4.3 12.2 0.00 0.87 0.35 59 1000.8
20260504230110 50 241 6.1 14.8 0.00 1.12 0.35 58 1000.5
20260504224606 50 200 7.8 12.2 0.00 1.12 0.35 58 1000.4
20260504223050 51 261 7.8 16.5 0.00 1.12 0.35 59 1000.3
20260504221548 51 251 9.6 18.2 0.00 1.12 0.35 59 1000.1
20260504220055 51 256 9.6 16.5 0.00 1.30 0.35 59 999.9
20260504214547 51 264 7.8 20.0 0.00 1.30 0.35 60 999.7
20260504213045 52 241 10.4 19.1 0.00 1.30 0.35 62 999.7
20260504211543 52 255 11.3 27.8 0.00 1.30 0.35 63 999.6
20260504210053 52 283 8.7 23.5 0.00 1.32 0.35 65 999.2
20260504204540 52 264 8.7 18.2 0.00 1.32 0.35 67 999.1
20260504203034 51 244 7.8 21.7 0.00 1.32 0.35 70 998.9
20260504201530 51 231 8.7 19.1 0.00 1.32 0.35 72 998.7
20260504200033 51 235 7.0 20.0 0.00 1.43 0.35 73 998.4
20260504194526 50 268 10.4 23.5 0.00 1.43 0.35 74 998.2
20260504193024 50 242 12.2 27.8 0.00 1.43 0.35 75 997.9
20260504191523 51 240 12.2 27.8 0.00 1.43 0.35 74 997.6
20260504190021 50 229 10.4 22.6 0.00 1.43 0.35 76 997.0
20260504184527 50 226 7.8 31.3 0.00 1.43 0.35 77 997.0
20260504183023 49 241 11.3 37.4 0.00 1.43 0.35 78 996.8
20260504181511 47 219 13.9 26.9 0.00 1.43 0.35 81 996.4
20260504180008 46 271 14.8 32.2 0.00 1.43 0.35 83 996.4
20260504174505 46 231 8.7 26.9 0.00 1.43 0.35 84 996.1
20260504173002 46 283 17.4 30.4 0.01 1.43 0.35 86 995.5
20260504171600 45 243 8.7 23.5 0.01 1.43 0.35 87 995.7